Weather History for Mobridge, SD

Change the Weather History Date:

Wednesday, February 13, 2013

  Actual Average Record
Temperature  
Mean Temperature 33 °F 20 °F  
Max Temperature 44 °F 31 °F 61 °F (1983)
Min Temperature 21 °F 9 °F -23 °F (1929)
Degree Days  
Heating Degree Days 32 45  
Month to date heating degree days 506 603  
Since 1 July heating degree days 5191 5336  
Cooling Degree Days 0 0  
Month to date cooling degree days 0 0  
Year to date cooling degree days 0 0  
Moisture  
Dew Point 27 °F    
Average Humidity 77    
Maximum Humidity 92    
Minimum Humidity 62    
Precipitation  
Precipitation T in 0.01 in 0.35 in (1962)
Month to date precipitation 0.23 0.18  
Year to date precipitation 0.83 0.47  
Snow  
Snow 0.00 in - - ()
Month to date snowfall 3.4  
Since 1 July snowfall 23.2  
Snow Depth 3.00 in    
Sea Level Pressure  
Sea Level Pressure 29.72 in    
Wind  
Wind Speed 10 mph (NNW)    
Max Wind Speed 29 mph    
Max Gust Speed 35 mph    
Visibility 10 miles    
Events Snow    
T = Trace of Precipitation, MM = Missing Value Source: NWS Daily Summary

Daily Weather History Graph

Daily Weather History Graph

Search for Another Location

Airport:

Trip Planner

Search our weather history database for the weather conditions in past years. The results will help you decide how hot, cold, wet, or windy it might be!

Date:

Astronomy

Feb. 13, 2013 Rise Set
Actual Time 7:46 AM CST 6:06 PM CST
Civil Twilight 7:15 AM CST 6:36 PM CST
Nautical Twilight 6:40 AM CST 7:11 PM CST
Astronomical Twilight 6:06 AM CST 7:46 PM CST
Moon 9:02 AM CST (2/13) 10:26 PM CST (2/13)
Length of Visible Light 11h 21m
Length of Day
10h 20m
Waxing Crescent, 14% of the Moon is Illuminated
Feb 13
Waxing Crescent
Feb 17
First Quarter
Feb 25
Full
Mar 4
Last Quarter
Mar 11
New

Hourly Weather History & Observations

Time (CST) Temp. Windchill Dew Point Humidity Pressure Visibility Wind Dir Wind Speed Gust Speed Precip Events Conditions
12:52 AM 30.9 °F 26.2 °F 25.0 °F 79% 29.83 in 10.0 mi SE 4.6 mph - N/A   Scattered Clouds
1:52 AM 28.0 °F - 23.0 °F 81% 29.81 in 10.0 mi Calm Calm - N/A   Clear
2:52 AM 24.1 °F - 19.9 °F 84% 29.80 in 10.0 mi Calm Calm - N/A   Clear
3:52 AM 24.1 °F - 19.9 °F 84% 29.77 in 10.0 mi Calm Calm - N/A   Clear
4:52 AM 21.0 °F - 19.0 °F 92% 29.76 in 10.0 mi Calm Calm - N/A   Scattered Clouds
5:52 AM 24.1 °F 17.0 °F 19.9 °F 84% 29.74 in 10.0 mi SE 5.8 mph - N/A   Clear
6:52 AM 27.0 °F 21.6 °F 23.0 °F 85% 29.71 in 10.0 mi SSE 4.6 mph - N/A   Overcast
7:52 AM 30.0 °F 24.1 °F 25.0 °F 82% 29.70 in 10.0 mi SSE 5.8 mph - N/A   Overcast
8:52 AM 30.9 °F 23.5 °F 25.0 °F 79% 29.67 in 10.0 mi SE 8.1 mph - N/A   Overcast
9:52 AM 32.0 °F 27.5 °F 27.0 °F 82% 29.65 in 10.0 mi ESE 4.6 mph - N/A   Overcast
10:52 AM 37.9 °F - 28.9 °F 70% 29.63 in 10.0 mi Calm Calm - N/A   Overcast
11:52 AM 42.1 °F 33.9 °F 30.0 °F 62% 29.61 in 10.0 mi NW 17.3 mph 25.3 mph N/A   Overcast
12:52 PM 42.1 °F 32.1 °F 30.9 °F 65% 29.61 in 10.0 mi NW 25.3 mph 31.1 mph N/A   Overcast
1:52 PM 42.1 °F 33.6 °F 32.0 °F 67% 29.61 in 10.0 mi NW 18.4 mph 29.9 mph N/A   Mostly Cloudy
2:52 PM 44.1 °F 35.4 °F 32.0 °F 63% 29.62 in 10.0 mi NW 21.9 mph 32.2 mph N/A   Partly Cloudy
3:52 PM 44.1 °F 35.7 °F 32.0 °F 63% 29.63 in 10.0 mi NNW 20.7 mph 26.5 mph N/A   Clear
4:52 PM 42.1 °F 34.9 °F 30.9 °F 65% 29.66 in 10.0 mi NW 13.8 mph 23.0 mph N/A   Clear
5:52 PM 39.9 °F 31.4 °F 30.0 °F 68% 29.69 in 10.0 mi NNW 16.1 mph - N/A   Clear
6:52 PM 39.9 °F 29.2 °F 30.0 °F 68% 29.71 in 10.0 mi NW 25.3 mph 32.2 mph N/A   Overcast
7:36 PM 35.6 °F 25.5 °F 28.4 °F 75% 29.70 in 10.0 mi North 17.3 mph 26.5 mph N/A   Overcast
7:52 PM 34.0 °F 23.0 °F 28.9 °F 82% 29.77 in 10.0 mi North 18.4 mph - N/A   Overcast
8:23 PM 33.8 °F 24.3 °F 28.4 °F 81% 29.73 in 10.0 mi North 13.8 mph - N/A   Overcast
8:52 PM 34.0 °F 24.6 °F 28.9 °F 82% 29.79 in 10.0 mi North 13.8 mph - N/A   Overcast
9:09 PM 33.8 °F 24.8 °F 28.4 °F 81% 29.73 in 10.0 mi North 12.7 mph - N/A   Overcast
9:52 PM 33.1 °F 24.4 °F 28.0 °F 82% 29.81 in 10.0 mi NNW 11.5 mph - N/A   Overcast
10:52 PM 33.1 °F 26.9 °F 28.0 °F 82% 29.82 in 10.0 mi NW 6.9 mph - N/A   Overcast
11:48 PM 33.8 °F - 28.4 °F 81% 29.79 in 4.0 mi Calm Calm - 0.00 in Snow Light Snow
11:52 PM 33.1 °F - 28.9 °F 85% 29.83 in 3.0 mi Calm Calm - 0.00 in Snow Light Snow